Regional Weather Roundup
Issued by NWS Northern Indiana

Home | Current Version | Previous Version | Graphics & Text | Print | Product List | Glossary On
Versions: 1 2 3 4 5 6 7 8 9 10 11 12 13 14 15 16 17 18 19 20 21 22 23 24 25 26 27 28 29 30 31 32 33 34 35 36 37 38 39 40 41 42 43 44 45 46 47 48 49 50
000
ASUS43 KIWX 042100
RWRIWX

KIWX WEATHER ROUNDUP
NATIONAL WEATHER SERVICE NORTHERN INDIANA
400 PM EST SUN DEC 04 2016

NOTE: "FAIR" INDICATES FEW OR NO CLOUDS BELOW 12,000 FEET WITH NO
SIGNIFICANT WEATHER AND/OR OBSTRUCTIONS TO VISIBILITY.

* THESE STATIONS ARE NOT UNDER NWS QUALITY CONTROL. THEY ALSO MAY NOT
  REPORT WEATHER SUCH AS PRECIPITATION OR FOG.

INZ001>027-042200-
NORTHERN INDIANA

CITY           SKY/WX    TMP DP  RH WIND       PRES   REMARKS
GARY*          SNOW      34  34 100 CALM      29.93  VSB 1/2
SOUTH BEND     SNOW      32  31  96 SE9       29.94F VSB 1/2 WCI  24
GOSHEN         LGT SNOW  33  30  88 E10       29.94F VSB 3/4 WCI  25
ANGOLA*        CLOUDY    34  32  93 E6        29.97F WCI  29
FORT WAYNE     LGT SNOW  35  32  88 E9        29.95F FOG     WCI  28
PERU/GRISSOM   LGT SNOW  33  33 100 E7        29.90S VSB 1   WCI  26

$$
INZ028>050-042200-
CENTRAL INDIANA

CITY           SKY/WX    TMP DP  RH WIND       PRES   REMARKS
LAFAYETTE      LGT SNOW  32  32 100 E8        29.91F VSB 1   WCI  25
KOKOMO*        LGT SNOW  33  31  92 E6        29.94R VSB 1   WCI  28
MUNCIE*        LGT RAIN  38  34  85 SE10      29.92S FOG
INDIANAPOLIS   LGT RAIN  38  37  97 E6        29.90S VSB 1

$$
MIZ043>046-050>051-056>058-064>065-071>073-077>080-042200-
SOUTHWEST LOWER MICHIGAN

CITY           SKY/WX    TMP DP  RH WIND       PRES   REMARKS
BATTLE CREEK   LGT SNOW  33  32  96 E8        29.97F VSB 3/4 WCI  26
BENTON HARBOR  SNOW      33  31  92 E6        29.94F VSB 1/4 WCI  28
COLDWATER*     LGT SNOW  33  32  94 E7        29.96F WCI  27
HILLSDALE*     CLOUDY    34  30  86 E8        29.97F WCI  27
HOLLAND        LGT SNOW  33  31  92 E7        29.96F VSB 3/4 WCI  27
GRAND RAPIDS   SNOW      32  30  92 SE10      29.98F VSB 1/2 WCI  24
KALAMAZOO      LGT SNOW  33  30  88 E6        29.96F VSB 1   WCI  28
STURGIS*       LGT SNOW  33  32  95 E8        29.95F VSB 1   WCI  26
THREE RIVERS*  LGT SNOW  33  33  99 E6        29.95F VSB 3/4 WCI  28

$$
OHZ001>008-015>018-024>025-042200-
NORTHWEST OHIO

CITY           SKY/WX    TMP DP  RH WIND       PRES   REMARKS
DEFIANCE       CLOUDY    40  30  67 E7        29.99F
FINDLAY        CLOUDY    41  28  60 SE8       29.97F
TOLEDO EXPRESS CLOUDY    38  29  70 E9        30.00F
TOLEDO METCALF CLOUDY    39  30  70 E6        30.02F
LIMA           LGT SNOW  36  32  85 SE9       29.96F FOG

$$
AND FOR LAKE MICHIGAN COASTAL AND OPEN LAKE BUOY OBSERVATIONS

STATION/POSITION TEMP    WIND        PRES    VSBY  WAVE
                 AIR SEA DIR/SP/G                  HT/PER
                 (F)     (DEG/KT/KT) (MB)    (MI)  (FT/S)
CALUMET HARBOR    33     110/  7/ 10 1013.1F
BURNS HARBOR      33      80/  7/  9 1013.9F
SAINT JOSEPH      33      20/  1/  4 1014.6
SOUTH LAKE BUOY   36 48  140/ 14/ 17 1014.7          2/ 4

$$
&&



USA.gov is the U.S. government's official web portal to all federal, state and local government web resources and services.